Weather History for Iron Mountain, MI

Change the Weather History Date:

Thursday, May 2, 2013

  Actual Average Record
Temperature  
Mean Temperature 36 °F -  
Max Temperature 42 °F 59 °F 84 °F (1951)
Min Temperature 32 °F 33 °F 21 °F (1990)
Degree Days  
Heating Degree Days 28    
Moisture  
Dew Point 30 °F    
Average Humidity 79    
Maximum Humidity 92    
Minimum Humidity 68    
Precipitation  
Precipitation 0.10 in - - ()
Sea Level Pressure  
Sea Level Pressure 30.35 in    
Wind  
Wind Speed 15 mph (NNW)    
Max Wind Speed 20 mph    
Max Gust Speed 29 mph    
Visibility 9 miles    
Events Rain    
Averages and records for this station are not official NWS values.
T = Trace of Precipitation, MM = Missing Value Source: NWS Daily Summary

Daily Weather History Graph

Daily Weather History Graph

Search for Another Location

Airport:

Trip Planner

Search our weather history database for the weather conditions in past years. The results will help you decide how hot, cold, wet, or windy it might be!

Date:

Astronomy

May. 02, 2013 Rise Set
Actual Time 5:37 AM CDT 8:01 PM CDT
Civil Twilight 5:04 AM CDT 8:34 PM CDT
Nautical Twilight 4:23 AM CDT 9:16 PM CDT
Astronomical Twilight 3:36 AM CDT 10:03 PM CDT
Moon 1:48 AM CDT (5/2) 12:28 PM CDT (5/2)
Length of Visible Light 15h 30m
Length of Day
14h 23m
Waning Gibbous, 47% of the Moon is Illuminated
May 2
Waning Gibbous
May 9
New
May 17
First Quarter
May 24
Full
May 31
Last Quarter

Hourly Weather History & Observations

Time (CDT) Temp. Windchill Dew Point Humidity Pressure Visibility Wind Dir Wind Speed Gust Speed Precip Events Conditions
12:54 AM 37.9 °F 30.9 °F 30.9 °F 76% 30.38 in 10.0 mi NNW 10.4 mph - N/A   Mostly Cloudy
1:54 AM 37.9 °F 29.6 °F 30.0 °F 73% 30.36 in 10.0 mi NNW 13.8 mph 20.7 mph N/A   Overcast
2:54 AM 37.9 °F 29.6 °F 30.0 °F 73% 30.36 in 10.0 mi NNW 13.8 mph - N/A   Overcast
3:54 AM 37.9 °F 28.2 °F 30.9 °F 76% 30.36 in 10.0 mi NNW 18.4 mph 21.9 mph N/A   Overcast
4:54 AM 37.9 °F 30.9 °F 30.9 °F 76% 30.37 in 10.0 mi NNW 10.4 mph 20.7 mph N/A   Overcast
5:54 AM 37.0 °F 27.4 °F 30.0 °F 76% 30.37 in 10.0 mi NNW 17.3 mph 24.2 mph N/A   Overcast
6:13 AM 37.4 °F 27.8 °F 30.2 °F 75% 30.34 in 10.0 mi North 17.3 mph 23.0 mph N/A   Overcast
6:51 AM 37.4 °F 27.5 °F 30.2 °F 75% 30.34 in 10.0 mi North 18.4 mph 23.0 mph N/A   Overcast
6:54 AM 37.0 °F 26.7 °F 30.0 °F 76% 30.37 in 10.0 mi North 19.6 mph 26.5 mph N/A   Overcast
7:54 AM 37.9 °F 28.9 °F 30.9 °F 76% 30.40 in 10.0 mi North 16.1 mph 26.5 mph N/A   Overcast
8:54 AM 39.9 °F 30.5 °F 32.0 °F 73% 30.39 in 10.0 mi North 19.6 mph 26.5 mph N/A   Overcast
9:54 AM 41.0 °F 32.2 °F 32.0 °F 70% 30.39 in 10.0 mi North 18.4 mph 24.2 mph N/A   Overcast
10:54 AM 39.9 °F 31.8 °F 30.9 °F 70% 30.40 in 10.0 mi North 15.0 mph 23.0 mph N/A   Overcast
11:54 AM 37.9 °F 28.5 °F 30.0 °F 73% 30.41 in 10.0 mi North 17.3 mph 24.2 mph N/A   Overcast
12:54 PM 36.0 °F 26.3 °F 30.0 °F 79% 30.40 in 10.0 mi NNW 16.1 mph 23.0 mph 0.00 in Rain Light Rain
1:54 PM 36.0 °F 26.7 °F 28.9 °F 76% 30.39 in 10.0 mi NNW 15.0 mph 23.0 mph 0.00 in   Overcast
2:54 PM 37.9 °F 28.2 °F 28.0 °F 68% 30.37 in 10.0 mi North 18.4 mph - 0.00 in   Overcast
3:54 PM 37.9 °F 29.6 °F 28.9 °F 70% 30.38 in 10.0 mi NNW 13.8 mph 24.2 mph N/A   Overcast
4:54 PM 36.0 °F 25.3 °F 28.9 °F 76% 30.33 in 10.0 mi North 19.6 mph 26.5 mph 0.00 in   Overcast
5:26 PM 35.6 °F 28.0 °F 28.4 °F 75% 30.36 in 5.0 mi North 10.4 mph - 0.00 in Rain Rain
5:54 PM 34.0 °F 23.8 °F 30.0 °F 85% 30.36 in 6.0 mi NNW 16.1 mph 26.5 mph 0.02 in Rain Light Rain
6:10 PM 33.8 °F 24.8 °F 30.2 °F 87% 30.31 in 10.0 mi NNW 12.7 mph 21.9 mph 0.00 in Rain Light Rain
6:54 PM 33.1 °F 22.2 °F 28.9 °F 85% 30.33 in 10.0 mi NNW 17.3 mph 28.8 mph 0.00 in   Overcast
7:54 PM 33.1 °F 23.4 °F 28.0 °F 82% 30.35 in 10.0 mi NNW 13.8 mph - N/A   Overcast
8:14 PM 33.8 °F 23.9 °F 28.4 °F 81% 30.31 in 6.0 mi North 15.0 mph - 0.02 in Rain Light Freezing Rain
8:33 PM 33.8 °F 24.8 °F 28.4 °F 81% 30.30 in 7.0 mi North 12.7 mph - 0.04 in Rain Light Freezing Rain
8:54 PM 32.0 °F 22.5 °F 28.9 °F 88% 30.35 in 5.0 mi NNW 12.7 mph - 0.06 in Rain Light Freezing Rain
8:57 PM 32.0 °F 22.5 °F 28.4 °F 87% 30.31 in 4.0 mi NNW 12.7 mph - 0.00 in   Overcast
9:54 PM 32.0 °F 22.5 °F 30.0 °F 92% 30.35 in 8.0 mi NNW 12.7 mph - 0.02 in Rain Light Freezing Rain
10:18 PM 32.0 °F 21.6 °F 28.4 °F 87% 30.30 in 8.0 mi NNW 15.0 mph 18.4 mph 0.00 in Rain Light Freezing Rain
10:38 PM 32.0 °F 20.8 °F 28.4 °F 87% 30.29 in 10.0 mi NNW 17.3 mph 21.9 mph 0.00 in   Overcast
10:54 PM 32.0 °F 22.5 °F 28.9 °F 88% 30.33 in 10.0 mi North 12.7 mph - 0.00 in   Overcast
11:04 PM 32.0 °F 22.1 °F 28.4 °F 87% 30.29 in 10.0 mi North 13.8 mph 20.7 mph N/A   Overcast
11:54 PM 32.0 °F 23.0 °F 28.0 °F 85% 30.32 in 10.0 mi NNW 11.5 mph 23.0 mph N/A   Overcast